QPF
0.05 0.06 0.05 0.05 0.05 0.04 0.03 0.03 0.02 0.02 0.01 0.01 0.01 0.01 0.00 0.00 0.00 0.01 0.01 0.00 0.00 0.00 0.00 0.00 0.01 0.01 0.01 0.01 0.02 0.03 0.05 0.07 0.07 0.06 0.06 0.07 0.07 0.07
0.05 0.06 0.06 0.06 0.06 0.06 0.05 0.05 0.03 0.03 0.02 0.01 0.02 0.01 0.01 0.00 0.00 0.00 0.00 0.00 0.00 0.00 0.00 0.00 0.00 0.00 0.01 0.01 0.01 0.01 0.02 0.03 0.04 0.06 0.06 0.07 0.07 0.07
0.03 0.04 0.05 0.06 0.07 0.07 0.07 0.06 0.05 0.04 0.03 0.03 0.02 0.01 0.01 0.01 0.01 0.01 0.00 0.01 0.00 0.01 0.00 0.00 0.01 0.01 0.01 0.01 0.02 0.02 0.02 0.04 0.04 0.06 0.07 0.08 0.08 0.09
0.02 0.03 0.03 0.04 0.05 0.05 0.06 0.06 0.05 0.05 0.05 0.04 0.04 0.02 0.01 0.01 0.01 0.01 0.00 0.00 0.00 0.01 0.01 0.01 0.01 0.01 0.01 0.01 0.01 0.01 0.03 0.04 0.05 0.07 0.09 0.10 0.11 0.12
0.02 0.03 0.03 0.04 0.04 0.04 0.04 0.04 0.05 0.04 0.05 0.05 0.04 0.04 0.02 0.01 0.01 0.01 0.01 0.01 0.00 0.00 0.01 0.01 0.01 0.01 0.02 0.02 0.01 0.02 0.03 0.06 0.06 0.08 0.10 0.11 0.12 0.13
0.01 0.02 0.03 0.04 0.04 0.04 0.05 0.04 0.04 0.04 0.04 0.04 0.03 0.03 0.02 0.02 0.02 0.01 0.02 0.01 0.01 0.00 0.01 0.01 0.02 0.02 0.02 0.03 0.04 0.03 0.05 0.08 0.10 0.10 0.11 0.11 0.11 0.11
0.01 0.01 0.01 0.02 0.03 0.04 0.04 0.04 0.05 0.04 0.04 0.04 0.03 0.02 0.02 0.02 0.01 0.01 0.01 0.02 0.01 0.01 0.01 0.01 0.02 0.02 0.03 0.04 0.05 0.05 0.04 0.07 0.11 0.15 0.15 0.14 0.13 0.13
0.02 0.01 0.01 0.01 0.02 0.02 0.03 0.03 0.04 0.05 0.05 0.04 0.03 0.02 0.02 0.01 0.02 0.02 0.02 0.02 0.02 0.01 0.01 0.02 0.03 0.04 0.03 0.04 0.07 0.08 0.07 0.07 0.08 0.11 0.16 0.17 0.15 0.14
0.02 0.02 0.01 0.00 0.01 0.02 0.02 0.02 0.02 0.02 0.03 0.05 0.05 0.03 0.02 0.02 0.02 0.02 0.02 0.02 0.02 0.01 0.01 0.02 0.03 0.04 0.06 0.07 0.08 0.08 0.09 0.08 0.09 0.08 0.08 0.11 0.13 0.13
0.02 0.02 0.02 0.01 0.01 0.01 0.03 0.03 0.02 0.02 0.01 0.03 0.05 0.05 0.04 0.04 0.04 0.04 0.03 0.03 0.03 0.02 0.01 0.02 0.03 0.04 0.05 0.06 0.09 0.09 0.08 0.09 0.10 0.11 0.12 0.12 0.13 0.14
0.02 0.02 0.02 0.02 0.01 0.01 0.02 0.03 0.03 0.02 0.01 0.02 0.04 0.04 0.03 0.03 0.04 0.04 0.04 0.04 0.04 0.03 0.02 0.02 0.03 0.04 0.05 0.05 0.05 0.08 0.09 0.09 0.10 0.10 0.10 0.11 0.12 0.13
0.04 0.03 0.01 0.01 0.01 0.01 0.01 0.04 0.05 0.04 0.03 0.02 0.02 0.02 0.02 0.02 0.02 0.03 0.03 0.03 0.03 0.03 0.03 0.02 0.02 0.02 0.04 0.05 0.04 0.04 0.06 0.08 0.10 0.10 0.09 0.08 0.08 0.08
0.03 0.03 0.03 0.01 0.00 0.00 0.01 0.03 0.06 0.06 0.05 0.05 0.04 0.04 0.04 0.03 0.02 0.03 0.04 0.04 0.02 0.02 0.01 0.01 0.02 0.02 0.02 0.03 0.03 0.04 0.04 0.05 0.06 0.09 0.10 0.10 0.08 0.07
0.04 0.03 0.03 0.01 0.00 0.01 0.02 0.04 0.07 0.07 0.06 0.07 0.07 0.06 0.05 0.05 0.04 0.03 0.05 0.06 0.06 0.04 0.02 0.02 0.02 0.03 0.02 0.02 0.02 0.03 0.03 0.03 0.04 0.05 0.06 0.06 0.06 0.05
0.04 0.03 0.02 0.01 0.00 0.01 0.03 0.06 0.08 0.08 0.07 0.07 0.07 0.07 0.06 0.06 0.06 0.06 0.07 0.07 0.08 0.07 0.05 0.04 0.05 0.05 0.04 0.03 0.03 0.03 0.02 0.02 0.02 0.03 0.04 0.04 0.04 0.03
0.01 0.01 0.01 0.02 0.01 0.02 0.05 0.09 0.09 0.10 0.10 0.07 0.06 0.08 0.08 0.08 0.08 0.07 0.06 0.07 0.09 0.10 0.09 0.07 0.07 0.06 0.05 0.04 0.04 0.03 0.02 0.02 0.02 0.03 0.03 0.03 0.03 0.03
0.03 0.04 0.04 0.06 0.04 0.05 0.08 0.12 0.12 0.14 0.14 0.12 0.08 0.09 0.10 0.09 0.08 0.06 0.06 0.06 0.08 0.10 0.10 0.09 0.08 0.08 0.07 0.05 0.04 0.03 0.03 0.03 0.03 0.02 0.02 0.03 0.03 0.02
0.03 0.05 0.07 0.10 0.08 0.09 0.13 0.16 0.18 0.19 0.17 0.16 0.11 0.09 0.10 0.09 0.08 0.07 0.07 0.06 0.08 0.09 0.10 0.08 0.06 0.07 0.08 0.08 0.06 0.04 0.03 0.02 0.02 0.02 0.02 0.02 0.01 0.01
0.05 0.07 0.09 0.11 0.13 0.15 0.18 0.19 0.23 0.23 0.21 0.20 0.14 0.10 0.10 0.10 0.08 0.08 0.08 0.08 0.07 0.07 0.07 0.06 0.05 0.04 0.05 0.05 0.05 0.04 0.03 0.03 0.02 0.02 0.01 0.01 0.01 0.00
0.06 0.09 0.12 0.13 0.16 0.19 0.23 0.26 0.29 0.28 0.25 0.22 0.17 0.12 0.10 0.10 0.09 0.08 0.07 0.07 0.07 0.06 0.05 0.05 0.05 0.04 0.04 0.03 0.03 0.03 0.03 0.03 0.03 0.02 0.01 0.01 0.00 0.00
0.09 0.12 0.14 0.16 0.20 0.22 0.24 0.25 0.29 0.28 0.24 0.21 0.16 0.12 0.09 0.09 0.09 0.07 0.06 0.07 0.06 0.06 0.05 0.05 0.05 0.05 0.03 0.03 0.02 0.02 0.02 0.01 0.01 0.01 0.01 0.01 0.00 0.00
0.12 0.15 0.15 0.18 0.21 0.22 0.20 0.22 0.27 0.27 0.22 0.19 0.17 0.13 0.09 0.07 0.07 0.06 0.04 0.05 0.05 0.05 0.05 0.04 0.04 0.03 0.02 0.02 0.02 0.01 0.01 0.01 0.00 0.00 0.00 0.00 0.00 0.00
0.13 0.15 0.17 0.18 0.18 0.20 0.19 0.19 0.23 0.24 0.20 0.16 0.15 0.12 0.09 0.06 0.05 0.04 0.04 0.04 0.04 0.04 0.04 0.03 0.03 0.02 0.02 0.02 0.01 0.01 0.01 0.01 0.00 0.00 0.00 0.00 0.00 0.00
MSLP
1009.45 1009.44 1009.50 1009.60 1009.73 1009.86 1009.99 1010.09 1010.18 1010.25 1010.32 1010.41 1010.51 1010.64 1010.80 1010.99 1011.20 1011.42 1011.62 1011.81 1011.96 1012.07 1012.15 1012.19 1012.21 1012.22 1012.23 1012.27 1012.34 1012.46 1012.64 1012.87 1013.15 1013.48 1013.85 1014.24 1014.65 1015.07
1009.29 1009.27 1009.30 1009.38 1009.48 1009.60 1009.73 1009.84 1009.95 1010.06 1010.15 1010.25 1010.36 1010.48 1010.61 1010.74 1010.88 1011.01 1011.12 1011.23 1011.31 1011.37 1011.42 1011.46 1011.48 1011.51 1011.55 1011.60 1011.68 1011.79 1011.95 1012.14 1012.38 1012.67 1013.00 1013.36 1013.76 1014.17
1009.10 1009.09 1009.11 1009.17 1009.26 1009.36 1009.48 1009.60 1009.72 1009.84 1009.95 1010.06 1010.17 1010.27 1010.35 1010.43 1010.49 1010.53 1010.57 1010.59 1010.61 1010.63 1010.66 1010.70 1010.74 1010.80 1010.86 1010.94 1011.03 1011.14 1011.27 1011.43 1011.63 1011.87 1012.16 1012.50 1012.88 1013.29
1008.86 1008.88 1008.91 1008.97 1009.04 1009.13 1009.24 1009.35 1009.47 1009.60 1009.72 1009.83 1009.93 1010.00 1010.05 1010.07 1010.06 1010.03 1009.99 1009.95 1009.93 1009.92 1009.94 1009.99 1010.06 1010.15 1010.25 1010.35 1010.45 1010.55 1010.66 1010.79 1010.95 1011.15 1011.40 1011.71 1012.08 1012.49
1008.56 1008.62 1008.68 1008.75 1008.82 1008.90 1008.99 1009.10 1009.21 1009.33 1009.45 1009.56 1009.64 1009.68 1009.70 1009.67 1009.61 1009.53 1009.44 1009.37 1009.32 1009.31 1009.34 1009.42 1009.52 1009.65 1009.78 1009.91 1010.02 1010.11 1010.20 1010.29 1010.41 1010.57 1010.80 1011.09 1011.45 1011.86
1008.19 1008.30 1008.40 1008.48 1008.56 1008.63 1008.72 1008.82 1008.92 1009.03 1009.14 1009.23 1009.29 1009.32 1009.30 1009.24 1009.16 1009.05 1008.95 1008.87 1008.83 1008.84 1008.91 1009.03 1009.18 1009.35 1009.52 1009.67 1009.79 1009.88 1009.94 1010.01 1010.10 1010.23 1010.42 1010.70 1011.06 1011.48
1007.76 1007.92 1008.04 1008.14 1008.23 1008.31 1008.39 1008.48 1008.58 1008.68 1008.77 1008.85 1008.90 1008.90 1008.87 1008.80 1008.71 1008.60 1008.51 1008.46 1008.46 1008.53 1008.66 1008.84 1009.05 1009.27 1009.48 1009.66 1009.79 1009.88 1009.93 1009.98 1010.05 1010.16 1010.34 1010.61 1010.97 1011.40
1007.26 1007.45 1007.60 1007.72 1007.82 1007.92 1008.00 1008.09 1008.18 1008.28 1008.36 1008.42 1008.45 1008.44 1008.40 1008.34 1008.25 1008.18 1008.13 1008.13 1008.20 1008.34 1008.54 1008.80 1009.08 1009.37 1009.63 1009.85 1010.00 1010.10 1010.16 1010.21 1010.27 1010.37 1010.55 1010.82 1011.17 1011.61
1006.70 1006.91 1007.08 1007.22 1007.34 1007.45 1007.55 1007.64 1007.74 1007.82 1007.89 1007.94 1007.96 1007.94 1007.90 1007.85 1007.79 1007.75 1007.76 1007.83 1007.98 1008.20 1008.49 1008.84 1009.21 1009.57 1009.89 1010.16 1010.35 1010.48 1010.57 1010.63 1010.70 1010.82 1011.00 1011.28 1011.64 1012.07
1006.11 1006.31 1006.49 1006.65 1006.79 1006.92 1007.03 1007.14 1007.24 1007.33 1007.39 1007.42 1007.43 1007.41 1007.37 1007.33 1007.30 1007.30 1007.37 1007.51 1007.73 1008.05 1008.43 1008.86 1009.32 1009.75 1010.15 1010.48 1010.74 1010.92 1011.05 1011.16 1011.26 1011.40 1011.61 1011.89 1012.25 1012.69
1005.51 1005.70 1005.88 1006.04 1006.20 1006.35 1006.48 1006.61 1006.72 1006.80 1006.86 1006.88 1006.88 1006.85 1006.81 1006.77 1006.76 1006.80 1006.92 1007.12 1007.41 1007.80 1008.26 1008.77 1009.31 1009.83 1010.30 1010.71 1011.04 1011.30 1011.50 1011.66 1011.82 1012.00 1012.23 1012.53 1012.89 1013.32
1004.94 1005.11 1005.27 1005.43 1005.60 1005.76 1005.91 1006.05 1006.16 1006.24 1006.29 1006.31 1006.29 1006.25 1006.21 1006.17 1006.18 1006.24 1006.39 1006.63 1006.97 1007.42 1007.94 1008.52 1009.12 1009.72 1010.28 1010.77 1011.19 1011.53 1011.82 1012.06 1012.28 1012.51 1012.78 1013.09 1013.45 1013.85
1004.43 1004.56 1004.70 1004.85 1005.01 1005.17 1005.32 1005.46 1005.57 1005.64 1005.68 1005.69 1005.66 1005.61 1005.56 1005.52 1005.53 1005.61 1005.77 1006.04 1006.42 1006.90 1007.46 1008.09 1008.75 1009.41 1010.04 1010.62 1011.13 1011.57 1011.95 1012.28 1012.57 1012.86 1013.16 1013.48 1013.84 1014.22
1004.01 1004.09 1004.19 1004.30 1004.43 1004.57 1004.70 1004.82 1004.91 1004.97 1005.00 1004.99 1004.95 1004.89 1004.84 1004.81 1004.83 1004.91 1005.09 1005.37 1005.77 1006.26 1006.86 1007.52 1008.22 1008.94 1009.64 1010.30 1010.90 1011.44 1011.91 1012.32 1012.69 1013.04 1013.37 1013.70 1014.04 1014.40
1003.69 1003.71 1003.75 1003.81 1003.88 1003.97 1004.05 1004.12 1004.18 1004.21 1004.21 1004.19 1004.14 1004.09 1004.05 1004.03 1004.07 1004.17 1004.37 1004.66 1005.07 1005.59 1006.19 1006.88 1007.61 1008.38 1009.14 1009.87 1010.55 1011.18 1011.74 1012.24 1012.68 1013.07 1013.43 1013.78 1014.11 1014.45
1003.47 1003.42 1003.38 1003.36 1003.35 1003.35 1003.35 1003.36 1003.35 1003.34 1003.31 1003.27 1003.23 1003.20 1003.18 1003.20 1003.28 1003.42 1003.65 1003.97 1004.40 1004.93 1005.56 1006.27 1007.03 1007.83 1008.63 1009.43 1010.18 1010.89 1011.52 1012.09 1012.59 1013.03 1013.42 1013.77 1014.10 1014.42
1003.34 1003.21 1003.08 1002.95 1002.83 1002.72 1002.62 1002.53 1002.45 1002.38 1002.32 1002.27 1002.24 1002.24 1002.27 1002.35 1002.49 1002.69 1002.97 1003.35 1003.82 1004.38 1005.03 1005.76 1006.55 1007.37 1008.22 1009.06 1009.87 1010.63 1011.33 1011.96 1012.51 1012.99 1013.40 1013.77 1014.09 1014.40
1003.28 1003.06 1002.83 1002.59 1002.35 1002.11 1001.89 1001.69 1001.52 1001.39 1001.29 1001.24 1001.23 1001.27 1001.37 1001.53 1001.75 1002.04 1002.40 1002.85 1003.37 1003.98 1004.67 1005.42 1006.23 1007.08 1007.95 1008.82 1009.67 1010.47 1011.21 1011.88 1012.47 1012.98 1013.42 1013.80 1014.13 1014.45
1003.25 1002.96 1002.63 1002.28 1001.91 1001.55 1001.21 1000.91 1000.65 1000.45 1000.32 1000.26 1000.28 1000.38 1000.56 1000.81 1001.13 1001.52 1001.97 1002.50 1003.10 1003.76 1004.48 1005.26 1006.09 1006.95 1007.83 1008.71 1009.57 1010.39 1011.15 1011.85 1012.46 1012.99 1013.45 1013.85 1014.20 1014.53
1003.22 1002.87 1002.46 1002.02 1001.55 1001.09 1000.65 1000.25 999.92 999.67 999.51 999.46 999.51 999.67 999.92 1000.26 1000.68 1001.17 1001.72 1002.33 1002.99 1003.70 1004.45 1005.25 1006.08 1006.94 1007.81 1008.68 1009.53 1010.34 1011.10 1011.80 1012.42 1012.96 1013.44 1013.86 1014.24 1014.59
1003.16 1002.77 1002.32 1001.82 1001.29 1000.76 1000.25 999.79 999.42 999.14 998.97 998.93 999.01 999.22 999.54 999.95 1000.45 1001.02 1001.65 1002.32 1003.03 1003.77 1004.54 1005.34 1006.15 1006.98 1007.82 1008.65 1009.46 1010.24 1010.98 1011.65 1012.27 1012.81 1013.30 1013.74 1014.14 1014.53
1003.03 1002.64 1002.18 1001.67 1001.13 1000.58 1000.06 999.58 999.19 998.91 998.75 998.72 998.83 999.08 999.44 999.91 1000.46 1001.08 1001.75 1002.45 1003.18 1003.93 1004.68 1005.45 1006.22 1007.00 1007.78 1008.54 1009.30 1010.02 1010.70 1011.34 1011.93 1012.47 1012.96 1013.41 1013.83 1014.25
1002.82 1002.47 1002.05 1001.58 1001.08 1000.57 1000.07 999.63 999.27 999.01 998.87 998.86 998.99 999.26 999.64 1000.13 1000.70 1001.32 1001.99 1002.69 1003.40 1004.11 1004.82 1005.52 1006.23 1006.93 1007.62 1008.31 1008.97 1009.62 1010.24 1010.82 1011.37 1011.88 1012.36 1012.81 1013.25 1013.68
Thickness
5673 5676 5679 5684 5687 5691 5695 5697 5696 5697 5703 5709 5712 5715 5716 5716 5715 5716 5718 5716 5717 5717 5718 5719 5719 5720 5720 5721 5722 5722 5723 5724 5724 5724 5724 5724 5724 5723
5660 5664 5668 5674 5678 5682 5686 5689 5692 5693 5695 5706 5705 5710 5710 5712 5709 5712 5713 5712 5713 5715 5715 5716 5717 5718 5718 5719 5720 5720 5721 5722 5722 5722 5723 5723 5722 5722
5648 5652 5656 5661 5666 5672 5676 5679 5683 5686 5687 5694 5699 5701 5700 5702 5705 5707 5709 5710 5712 5711 5712 5712 5713 5715 5716 5716 5717 5718 5719 5719 5720 5720 5720 5720 5720 5719
5634 5639 5644 5650 5654 5659 5664 5668 5673 5677 5679 5682 5687 5691 5692 5695 5697 5700 5704 5706 5707 5706 5706 5708 5709 5711 5712 5713 5714 5715 5715 5716 5716 5717 5717 5717 5717 5716
5619 5625 5631 5636 5641 5647 5652 5657 5662 5667 5670 5673 5678 5682 5685 5688 5690 5693 5697 5698 5701 5701 5701 5702 5704 5706 5707 5708 5709 5710 5711 5711 5712 5712 5712 5712 5712 5712
5605 5611 5617 5623 5628 5634 5639 5645 5651 5656 5660 5664 5669 5673 5676 5680 5683 5685 5688 5691 5694 5696 5695 5696 5697 5698 5700 5701 5702 5703 5704 5705 5706 5706 5707 5706 5706 5705
5590 5596 5602 5608 5614 5620 5627 5634 5639 5644 5651 5656 5661 5665 5669 5672 5675 5681 5682 5683 5685 5687 5689 5689 5691 5693 5693 5693 5694 5695 5696 5697 5698 5699 5699 5699 5698 5697
5576 5582 5589 5594 5599 5603 5609 5616 5622 5630 5638 5646 5654 5658 5662 5666 5670 5673 5675 5676 5676 5680 5681 5680 5682 5683 5684 5685 5684 5685 5687 5688 5689 5689 5689 5688 5688 5688
5566 5570 5577 5586 5589 5595 5600 5603 5609 5615 5622 5632 5642 5650 5656 5660 5663 5666 5667 5670 5672 5674 5673 5670 5671 5671 5672 5672 5673 5675 5676 5678 5678 5678 5678 5677 5677 5676
5557 5562 5566 5573 5579 5584 5590 5597 5604 5611 5616 5622 5632 5641 5647 5652 5656 5659 5661 5661 5662 5664 5666 5662 5660 5660 5660 5660 5661 5664 5665 5667 5667 5667 5666 5666 5665 5663
5551 5556 5560 5565 5569 5571 5577 5585 5593 5601 5606 5613 5620 5628 5634 5640 5646 5650 5652 5653 5653 5655 5657 5656 5652 5651 5650 5649 5649 5651 5653 5655 5655 5655 5655 5654 5653 5652
5547 5551 5552 5556 5559 5561 5568 5576 5583 5591 5598 5605 5609 5616 5623 5630 5634 5641 5647 5650 5651 5649 5650 5650 5647 5646 5642 5640 5641 5641 5641 5642 5642 5642 5642 5642 5642 5642
5544 5548 5552 5550 5550 5552 5557 5566 5574 5580 5588 5595 5602 5609 5616 5623 5629 5635 5641 5646 5648 5649 5649 5648 5645 5645 5644 5636 5634 5634 5634 5633 5632 5630 5629 5630 5630 5632
5539 5544 5547 5544 5544 5546 5551 5557 5561 5566 5578 5587 5594 5602 5609 5617 5624 5630 5634 5639 5643 5647 5647 5647 5646 5643 5640 5634 5630 5627 5627 5627 5626 5625 5622 5619 5619 5620
5534 5535 5536 5536 5538 5542 5544 5548 5552 5562 5571 5579 5588 5596 5604 5610 5616 5620 5624 5628 5632 5636 5638 5639 5641 5639 5637 5634 5629 5625 5622 5620 5620 5619 5616 5615 5614 5613
5529 5531 5529 5531 5534 5539 5543 5545 5551 5559 5566 5574 5582 5589 5596 5602 5607 5613 5617 5620 5623 5625 5627 5630 5632 5632 5631 5629 5626 5621 5619 5617 5615 5613 5611 5609 5608 5607
5527 5530 5532 5535 5537 5540 5543 5547 5551 5555 5560 5568 5575 5582 5588 5594 5600 5606 5612 5616 5619 5619 5619 5620 5621 5623 5623 5622 5619 5617 5615 5612 5610 5607 5606 5604 5603 5602
5520 5527 5530 5533 5537 5540 5542 5545 5549 5554 5559 5564 5571 5578 5584 5590 5595 5600 5606 5611 5614 5615 5615 5615 5615 5613 5611 5609 5611 5611 5610 5608 5605 5602 5602 5600 5598 5597
5519 5525 5528 5530 5534 5537 5540 5543 5548 5552 5557 5562 5568 5574 5580 5586 5591 5597 5602 5606 5608 5610 5610 5610 5610 5611 5609 5607 5602 5604 5606 5603 5599 5597 5597 5597 5594 5592
5521 5524 5526 5528 5531 5534 5538 5541 5545 5550 5555 5560 5566 5572 5578 5584 5588 5593 5597 5601 5603 5604 5604 5605 5607 5609 5610 5609 5604 5600 5598 5599 5597 5595 5594 5592 5588 5583
5523 5524 5526 5528 5531 5533 5536 5539 5543 5549 5554 5559 5565 5571 5576 5581 5585 5589 5593 5593 5598 5598 5599 5600 5601 5603 5606 5604 5600 5596 5593 5590 5591 5592 5590 5588 5584 5581
5525 5526 5528 5530 5532 5533 5536 5540 5544 5549 5554 5559 5565 5569 5574 5578 5582 5585 5588 5591 5593 5594 5595 5595 5595 5598 5599 5599 5597 5592 5589 5585 5582 5581 5581 5581 5584 5582
5528 5529 5531 5532 5533 5535 5538 5542 5546 5550 5555 5560 5565 5569 5574 5577 5580 5583 5586 5589 5591 5591 5591 5591 5592 5593 5595 5594 5593 5590 5585 5582 5581 5577 5576 5573 5573 5572